Date String (YYYY-MM-DD hh:mm:ss) UTC,Instrument flags,Ambient pressure (hPa),Sample flow (lpm),Bypass flow (lpm),Sample temperature (°C),Ambient temperature (°C),ASC tube jacket temperature (°C),LED temperature (°C),Box temperature (°C),Sample RH (%),Span deviation,Mass concentration (μg/m³),Mass concentration (μg/m³),Mass concentration (μg/m³)
DateTimeUTC,F1_M11,P_M11,Q1_M11,Q2_M11,T1_M11,T2_M11,T3_M11,T4_M11,T5_M11,U1_M11,ZSPAN_M11,X0_M11,X2_M11,X1_M11
2022-03-21 15:00:00,,0824.9,5.00,0.00,20.7,20.0,00.0,29.9,22.3,18.7,0000.0,0010.07,0002.70,0001.43
2022-03-21 15:01:00,,0824.9,4.99,0.00,20.7,19.9,00.0,29.9,22.2,18.5,0000.0,0010.33,0002.70,0001.47
2022-03-21 15:02:00,,0824.9,5.00,0.00,20.6,19.9,00.0,29.9,22.2,18.5,0000.0,0010.35,0002.74,0001.51
2022-03-21 15:03:00,,0824.9,5.00,0.00,20.6,19.8,00.0,29.9,22.2,18.5,0000.0,0010.20,0002.80,0001.55
2022-03-21 15:04:00,,0824.9,5.00,0.00,20.6,19.8,00.0,29.8,22.1,18.5,0000.0,0010.35,0002.90,0001.57
2022-03-21 15:05:00,,0824.9,5.00,0.00,20.6,19.8,00.0,29.8,22.1,18.6,0000.0,0009.75,0002.90,0001.60
2022-03-21 15:06:00,,0825.0,5.00,0.00,20.6,19.8,00.0,29.8,22.1,18.6,0000.0,0009.87,0002.89,0001.64
2022-03-21 15:07:00,,0824.9,5.00,0.00,20.5,19.7,00.0,29.8,22.1,18.6,0000.0,0009.41,0002.91,0001.67
2022-03-21 15:08:00,,0825.0,5.00,0.00,20.5,20.0,00.0,29.8,22.2,18.7,0000.0,0008.72,0002.89,0001.69
2022-03-21 15:09:00,,0825.0,5.00,0.00,20.7,21.1,00.0,29.8,22.5,18.6,0000.0,0009.08,0002.93,0001.71
2022-03-21 15:10:00,,0825.1,4.99,0.00,20.9,22.2,00.0,29.9,22.9,18.5,0000.0,0009.02,0002.91,0001.73
2022-03-21 15:11:00,,0825.1,5.00,0.00,21.1,22.5,00.0,29.9,23.1,18.4,0000.0,0008.75,0002.94,0001.76
2022-03-21 15:12:00,,0825.1,5.01,0.00,21.1,22.2,00.0,29.9,23.1,18.3,0000.0,0008.07,0002.99,0001.77
2022-03-21 15:13:00,,0825.1,4.99,0.00,21.1,21.8,00.0,30.0,23.0,18.3,0000.0,0008.04,0002.96,0001.78
2022-03-21 15:14:00,,0825.2,5.00,0.00,21.1,21.5,00.0,30.0,22.9,18.4,0000.0,0008.27,0003.07,0001.80
2022-03-21 15:15:00,,0825.2,5.01,0.00,21.1,21.1,00.0,30.0,22.8,18.5,0000.0,0007.71,0003.11,0001.83
2022-03-21 15:16:00,,0825.2,4.99,0.00,21.1,20.9,00.0,30.0,22.8,18.5,0000.0,0007.45,0003.15,0001.85
2022-03-21 15:17:00,,0825.2,5.01,0.00,21.0,20.8,00.0,30.0,22.7,18.6,0000.0,0008.03,0003.13,0001.87
2022-03-21 15:18:00,,0825.2,5.01,0.00,21.0,20.7,00.0,30.0,22.7,18.7,0000.0,0008.45,0003.10,0001.88
2022-03-21 15:19:00,,0825.2,5.00,0.00,21.0,20.5,00.0,30.0,22.7,18.7,0000.0,0008.56,0003.13,0001.91
2022-03-21 15:20:00,,0825.2,5.00,0.00,21.0,20.5,00.0,30.0,22.7,18.8,0000.0,0008.24,0003.13,0001.95
2022-03-21 15:21:00,,0825.2,5.01,0.00,21.0,20.5,00.0,30.0,22.7,18.8,0000.0,0008.14,0003.11,0001.96
2022-03-21 15:22:00,,0825.3,4.99,0.00,21.0,20.3,00.0,30.0,22.7,18.8,0000.0,0008.58,0003.09,0001.98
2022-03-21 15:23:00,,0825.3,5.00,0.00,21.0,20.2,00.0,30.0,22.7,18.8,0000.0,0008.69,0003.04,0002.00
2022-03-21 15:24:00,,0825.3,5.01,0.00,21.0,20.2,00.0,30.0,22.6,18.8,0000.0,0009.07,0003.04,0002.02
2022-03-21 15:25:00,,0825.3,5.01,0.00,20.9,20.1,00.0,30.0,22.5,18.8,0000.0,0008.96,0003.00,0002.02
2022-03-21 15:26:00,,0825.3,4.99,0.00,20.9,20.1,00.0,30.0,22.5,18.9,0000.0,0008.92,0002.94,0002.01
2022-03-21 15:27:00,,0825.3,5.00,0.00,20.9,20.1,00.0,30.0,22.5,18.9,0000.0,0008.93,0002.92,0002.01
2022-03-21 15:28:00,,0825.3,5.01,0.00,20.8,20.0,00.0,30.0,22.4,19.0,0000.0,0008.43,0002.97,0002.02
2022-03-21 15:29:00,,0825.3,5.00,0.00,20.8,20.0,00.0,30.0,22.4,19.1,0000.0,0007.71,0002.96,0002.03
2022-03-21 15:30:00,,0825.3,5.00,0.00,20.8,20.0,00.0,29.9,22.4,19.1,0000.0,0007.64,0003.02,0002.05
2022-03-21 15:31:00,,0825.4,5.00,0.00,20.8,20.0,00.0,29.9,22.4,19.2,0000.0,0007.54,0003.05,0002.07
2022-03-21 15:32:00,,0825.4,5.00,0.00,20.7,19.9,00.0,29.9,22.3,19.2,0000.0,0007.59,0003.10,0002.12
2022-03-21 15:33:00,,0825.4,5.00,0.00,20.7,19.8,00.0,29.9,22.2,19.3,0000.0,0007.32,0003.15,0002.14
2022-03-21 15:34:00,,0825.3,5.00,0.00,20.6,19.9,00.0,29.9,22.2,19.4,0000.0,0007.26,0003.18,0002.18
2022-03-21 15:35:00,,0825.4,4.99,0.00,20.8,20.9,00.0,29.9,22.5,19.3,0000.0,0006.40,0003.22,0002.22
2022-03-21 15:36:00,,0825.4,5.00,0.00,20.9,22.0,00.0,29.9,22.9,19.2,0000.0,0006.82,0003.23,0002.27
2022-03-21 15:37:00,,0825.5,5.00,0.00,21.1,22.4,00.0,30.0,23.1,19.0,0000.0,0007.72,0003.26,0002.31
2022-03-21 15:38:00,,0825.5,5.01,0.00,21.1,21.9,00.0,30.0,23.0,18.9,0000.0,0008.00,0003.29,0002.37
2022-03-21 15:39:00,,0825.4,5.00,0.00,21.1,21.5,00.0,30.0,22.8,19.0,0000.0,0008.00,0003.29,0002.42
2022-03-21 15:40:00,,0825.4,4.99,0.00,21.0,21.1,00.0,30.0,22.7,19.0,0000.0,0008.30,0003.33,0002.47
2022-03-21 15:41:00,,0825.4,5.01,0.00,20.9,20.7,00.0,30.0,22.6,19.0,0000.0,0008.26,0003.30,0002.48
2022-03-21 15:42:00,,0825.4,5.00,0.00,20.9,20.4,00.0,30.0,22.4,19.1,0000.0,0008.39,0003.31,0002.49
2022-03-21 15:43:00,,0825.4,5.00,0.00,20.8,20.2,00.0,29.9,22.3,19.2,0000.0,0008.46,0003.33,0002.49
2022-03-21 15:44:00,,0825.4,4.98,0.00,20.7,20.1,00.0,29.9,22.2,19.3,0000.0,0008.48,0003.32,0002.47
2022-03-21 15:45:00,,0825.4,5.00,0.00,20.7,19.9,00.0,29.9,22.2,19.3,0000.0,0008.84,0003.34,0002.45
2022-03-21 15:46:00,,0825.4,5.00,0.00,20.6,19.8,00.0,29.9,22.1,19.4,0000.0,0008.85,0003.35,0002.43
2022-03-21 15:47:00,,0825.4,5.00,0.00,20.6,19.6,00.0,29.9,22.0,19.4,0000.0,0008.60,0003.36,0002.41
2022-03-21 15:48:00,,0825.4,5.01,0.00,20.6,19.9,00.0,29.8,22.1,19.5,0000.0,0008.35,0003.37,0002.41
2022-03-21 15:49:00,,0825.5,5.00,0.00,20.7,21.0,00.0,29.9,22.5,19.4,0000.0,0008.13,0003.35,0002.40
2022-03-21 15:50:00,,0825.5,5.02,0.00,20.9,22.2,00.0,29.9,22.9,19.2,0000.0,0008.01,0003.37,0002.37
2022-03-21 15:51:00,,0825.4,4.99,0.00,21.1,22.4,00.0,30.0,23.0,19.1,0000.0,0007.75,0003.37,0002.35
2022-03-21 15:52:00,,0825.5,5.00,0.00,21.1,22.0,00.0,30.0,22.9,19.1,0000.0,0007.82,0003.38,0002.34
2022-03-21 15:53:00,,0825.5,5.00,0.00,21.0,21.5,00.0,30.0,22.7,19.1,0000.0,0007.65,0003.34,0002.33
2022-03-21 15:54:00,,0825.5,5.02,0.00,21.0,21.1,00.0,30.0,22.6,19.1,0000.0,0007.68,0003.33,0002.33
2022-03-21 15:55:00,,0825.4,4.98,0.00,20.9,20.7,00.0,30.0,22.5,19.2,0000.0,0007.51,0003.34,0002.34
2022-03-21 15:56:00,,0825.5,5.01,0.00,20.8,20.5,00.0,30.0,22.4,19.3,0000.0,0007.09,0003.32,0002.35
2022-03-21 15:57:00,,0825.4,5.00,0.00,20.8,20.3,00.0,29.9,22.3,19.4,0000.0,0007.23,0003.35,0002.36
2022-03-21 15:58:00,,0825.5,5.00,0.00,20.7,20.0,00.0,29.9,22.2,19.4,0000.0,0007.28,0003.36,0002.37
2022-03-21 15:59:00,,0825.5,5.01,0.00,20.6,19.8,00.0,29.9,22.1,19.5,0000.0,0007.66,0003.34,0002.37
